This is the latest recevied weather packets stored in our database for station/object SP9TKN-1. If no packets are shown the sender has not sent any weather packets the latest 10 day(s).
| Time | Temp. | Humidity | Pressure | Rain* | Wind** | Luminosity | Snow |
|---|---|---|---|---|---|---|---|
| 1777741265 | 18.89° C | 23% | 1020.8 hPa | - | - | - | - |
| 1777740365 | 18.89° C | 22% | 1020.9 hPa | - | - | - | - |
| 1777739465 | 19.44° C | 23% | 1021 hPa | - | - | - | - |
| 1777738565 | 19.44° C | 24% | 1021.1 hPa | - | - | - | - |
| 1777737665 | 19.44° C | 24% | 1021.2 hPa | - | - | - | - |
| 1777736765 | 19.44° C | 23% | 1021.4 hPa | - | - | - | - |
| 1777735865 | 19.44° C | 25% | 1021.5 hPa | - | - | - | - |
| 1777734965 | 20° C | 22% | 1021.6 hPa | - | - | - | - |
| 1777734065 | 20° C | 24% | 1021.8 hPa | - | - | - | - |
| 1777733165 | 20° C | 20% | 1021.9 hPa | - | - | - | - |
| 1777732264 | 20° C | 23% | 1021.9 hPa | - | - | - | - |
| 1777731364 | 20.56° C | 23% | 1022 hPa | - | - | - | - |
| 1777730465 | 20.56° C | 23% | 1022.2 hPa | - | - | - | - |
| 1777729565 | 20.56° C | 22% | 1022.4 hPa | - | - | - | - |
| 1777728665 | 20.56° C | 24% | 1022.4 hPa | - | - | - | - |
| 1777727765 | 20.56° C | 25% | 1022.6 hPa | - | - | - | - |
| 1777726865 | 20.56° C | 26% | 1022.9 hPa | - | - | - | - |
| 1777725965 | 20.56° C | 24% | 1023.1 hPa | - | - | - | - |
| 1777725065 | 20.56° C | 24% | 1023.2 hPa | - | - | - | - |
| 1777722365 | 20° C | 24% | 1023.9 hPa | - | - | - | - |
| 1777721465 | 20° C | 27% | 1024.1 hPa | - | - | - | - |
| 1777720565 | 20° C | 27% | 1024.2 hPa | - | - | - | - |
| 1777719664 | 20° C | 26% | 1024.3 hPa | - | - | - | - |
| 1777718764 | 19.44° C | 27% | 1024.5 hPa | - | - | - | - |
| 1777717864 | 19.44° C | 28% | 1024.8 hPa | - | - | - | - |
* Rain since midnight (hover to see other rain measurements)
** Current wind speed in m/s (hover to see current wind gust speed)